User: anonymous
Location: Columbia
(38.9520°N, 92.3340°W)
Time: 10:51:24
(UTC-05:00)
Language:

Iridium 52 - Orbit

View from above orbital plane
View from above orbital plane
View from above satellite
View from above satellite

Ground track
Ground track

The orbit data is extracted from the following two-line orbital elements,

1 25169U 98010A   14262.40673148  .00000207  00000-0  66797-4 0  6804
2 25169 086.3964 049.0940 0002155 111.6143 304.6119 14.34219728868194
Epoch (UTC): 19 September 2014 09:45:41
Eccentricity: 0.0002155
inclination: 86.3964°
perigee height: 776 km
apogee height: 779 km
right ascension of ascending node: 49.0940°
argument of perigee: 111.6143°
revolutions per day: 14.34219728
mean anomaly at epoch: 304.6119°
orbit number at epoch: 86819

The dashed part of the orbit path shows where the satellite is in the earth's shadow,  

DLR